Regional Weather Roundup
Issued by NWS Sioux Falls, SD

Home | Current Version | Previous Version | Text Only | Print | Product List | Glossary Off
Versions: 1 2 3 4 5 6 7 8 9 10 11 12 13 14 15 16 17 18 19 20 21 22 23 24 25 26 27 28 29 30 31 32 33 34 35 36 37 38 39 40 41 42 43 44 45 46 47 48 49 50

127
ASUS43 KFSD 062210
RWRFSD

WEATHER ROUNDUP FOR SE SOUTH DAKOTA/SW MINNESOTA/NW IOWA
NATIONAL WEATHER SERVICE SIOUX FALLS SD
400 PM CST TUE DEC 06 2016

NOTE: "FAIR" INDICATES FEW OR NO CLOUDS BELOW 12,000 FEET WITH NO
SIGNIFICANT WEATHER AND OR OBSTRUCTIONS TO VISIBILITY.


SDZ038>040-050-052>070-062300-
SOUTHEAST SOUTH DAKOTA

CITY           SKY/WX    TMP DP  RH WIND       PRES   REMARKS
BROOKINGS      LGT SNOW  14   9  79 W30         N/A  WCI  -7
CHAMBERLAIN    CLEAR     18   7  61 NW23G30   30.00R WCI   1
HURON          MOCLDY    15   6  67 W23G38    29.95R WCI  -3
MADISON        FLURRIES  16  12  86 W31G37    29.86R WCI  -5
MITCHELL       PTCLDY    20   9  62 W28G33    29.97R WCI   2
SIOUX FALLS    PTCLDY    21  11  65 W22G33    29.90R WCI   5
WINNER         FAIR      21   6  52 W17G28    30.00R WCI   7
YANKTON        CLEAR    N/A N/A N/A W31G38    29.95S
$$

MNZ071-072-080-081-089-090-097-098-062300-
SOUTHWEST MINNESOTA

CITY           SKY/WX    TMP DP  RH WIND       PRES   REMARKS
FAIRMONT       CLEAR     23  13  65 W24G32    29.83R WCI   7
JACKSON        CLOUDY    21  12  68 W28G35    29.82R WCI   3
LUVERNE        PTCLDY    21  10  63 W25G33    29.89R WCI   4
MARSHALL       FLURRIES  18   9  68 W29G39    29.79R WCI  -1
MONTEVIDEO     CLOUDY    21  10  63 NW24G33   29.77R WCI   4
PIPESTONE      FLURRIES  18  10  73 W31G38    29.83R WCI  -2
REDWOOD FALLS  CLOUDY    21   8  57 W32G40    29.79R WCI   2
TRACY          PTCLDY    19  11  71 W16G26    29.81R WCI   5
WINDOM         PTCLDY    19  12  73 W25G35    29.80R WCI   2
WORTHINGTON    FLURRIES  20  12  71 W26G36    29.83R WCI   2
$$

IAZ001>003-012>014-020>022-031-032-NEZ013-014-SDZ071-062300-
NORTHWEST IOWA

CITY           SKY/WX    TMP DP  RH WIND       PRES   REMARKS
CHEROKEE       CLEAR     26  11  53 W17G28    29.92S WCI  13
DENISON        CLEAR     28  12  50 W16G23    29.94R WCI  17
ESTHERVILLE    MOCLDY    22  13  68 W23G35    29.84R WCI   6
LE MARS        CLEAR     27  10  50 W22G32    29.95S WCI  12
ORANGE CITY    CLEAR     23  12  63 W25G35    29.91R WCI   7
SHELDON        MOCLDY    23  12  63 W26G36    29.88R WCI   6
SIOUX CITY     CLEAR     30  11  45 NW21G28   29.96R WCI  17
SPENCER        MOCLDY    24  12  60 W36G46    29.88R WCI   6
STORM LAKE     CLEAR     25  12  58 W24G35    29.89S WCI   9
$$

ABBREVIATIONS USED IN REMARKS
   TC - TEMPERATURE IN CELSIUS
  WCI - WIND CHILL INDEX
   HX - HEAT INDEX
  VSB - VISIBILITY





USA.gov is the U.S. government's official web portal to all federal, state and local government web resources and services.